This is the latest recevied weather packets stored in our database for station/object K9VSK-9. If no packets are shown the sender has not sent any weather packets the latest 10 day(s).
| Time | Temp. | Humidity | Pressure | Rain* | Wind** | Luminosity | Snow |
|---|---|---|---|---|---|---|---|
| 1788125043 | 28.33° C | 80% | 1015 hPa | 0 mm | - | - | - |
| 1788124743 | 28.33° C | 80% | 1015.1 hPa | 0 mm | - | - | - |
| 1788124442 | 28.33° C | 79% | 1015.3 hPa | 0 mm | - | - | - |
| 1788124143 | 28.33° C | 79% | 1015.3 hPa | 0 mm | - | - | - |
| 1788123843 | 27.78° C | 79% | 1015.1 hPa | 0 mm | - | - | - |
| 1788123541 | 27.78° C | 79% | 1015.1 hPa | 0 mm | - | - | - |
| 1788123242 | 27.78° C | 79% | 1015.1 hPa | 0 mm | - | - | - |
| 1788122942 | 27.78° C | 82% | 1015.3 hPa | 0 mm | - | - | - |
| 1788122640 | 27.78° C | 80% | 1015.4 hPa | 0 mm | - | - | - |
| 1788122341 | 27.78° C | 80% | 1015.4 hPa | 0 mm | - | - | - |
| 1788122041 | 27.78° C | 79% | 1015.5 hPa | 0 mm | - | - | - |
| 1788121740 | 27.78° C | 79% | 1015.4 hPa | 0 mm | - | - | - |
| 1788121439 | 27.78° C | 79% | 1015.3 hPa | 0 mm | - | - | - |
| 1788120840 | 27.78° C | 79% | 1015.3 hPa | 0 mm | - | - | - |
| 1788120238 | 27.78° C | 79% | 1015.3 hPa | 0 mm | - | - | - |
| 1788119939 | 27.78° C | 79% | 1015.3 hPa | 0 mm | - | - | - |
| 1788119638 | 27.22° C | 80% | 1015.3 hPa | 0 mm | - | - | - |
| 1788119338 | 27.22° C | 79% | 1015.3 hPa | 0 mm | - | - | - |
| 1788119037 | 27.22° C | 80% | 1015.2 hPa | 0 mm | - | - | - |
| 1788118738 | 27.22° C | 79% | 1015.3 hPa | 0 mm | - | - | - |
| 1788118437 | 27.22° C | 80% | 1015.3 hPa | 0 mm | - | - | - |
| 1788118137 | 26.67° C | 82% | 1015.3 hPa | 0 mm | - | - | - |
| 1788117836 | 26.67° C | 84% | 1015.4 hPa | 0 mm | - | - | - |
| 1788117537 | 26.67° C | 85% | 1015.4 hPa | 0 mm | - | - | - |
| 1788117235 | 26.11° C | 85% | 1015.5 hPa | 0 mm | - | - | - |
* Rain latest hour (hover to see other rain measurements)
** Current wind speed in m/s (hover to see current wind gust speed)